This demonstration page uses our WeatherBlox Daily Observations layout. Learn more.

39.92423, -83.80882

Hourly Observations for June 13, 2020

Temp ( °F °C ) Dew Point ( °F °C ) Humidity (%) Winds ( mph kmh ) Pressure ( in mb ) Visibility ( mi km ) Precip ( " mm )
12:56 am 00:56 Clear 65 18.3 52 11.1 63 63 S 7 11 30.15 1021 10 16.0934 0.03 0.762
1:56 am 01:56 Partly Cloudy 63 17.2 54 12.2 73 73 SSW 5 7 30.15 1021 10 16.0934 0.01 0.254
2:56 am 02:56 Clear 63 17.2 53 11.7 70 70 Calm 30.13 1020 10 16.0934 0 0
3:56 am 03:56 Partly Cloudy 60 15.6 52 11.1 75 75 N 5 7 30.14 1021 10 16.0934 0 0
4:56 am 04:56 Clear 59 15 55 12.8 87 87 NE 6 9 30.15 1021 10 16.0934 0 0
5:56 am 05:56 Clear 58 14.4 56 13.3 93 93 ENE 10 17 30.16 1022 10 16.0934 0 0
6:56 am 06:56 Cloudy 60 15.6 57 13.9 90 90 NE 13 20 30.2 1023 10 16.0934 0 0
7:56 am 07:56 Cloudy 59 15 56 13.3 90 90 NE 13 20 30.24 1024 10 16.0934 0 0
8:56 am 08:56 Cloudy with Light Rain 58 14.4 58 14.4 100 100 NNE 12 19 30.29 1026 10 16.0934 0.001 0.001
9:56 am 09:56 Cloudy with Light Rain 58 14.4 58 14.4 100 100 ESE 10 17 30.27 1025 10 16.0934 0.001 0.001
10:56 am 10:56 Cloudy with Light Rain 60 15.6 59 15 96 96 ESE 8 13 30.25 1024 10 16.0934 1.28 32.512
11:56 am 11:56 Cloudy with Light Rain 61 16.1 61 16.1 100 100 SSE 8 13 30.23 1024 10 16.0934 0 0
12:56 pm 12:56 Cloudy with Light Rain 62 16.7 60 15.6 93 93 NW 3 6 30.25 1024 10 16.0934 0 0
1:56 pm 13:56 Mostly Cloudy 64 17.8 60 15.6 87 87 E 5 7 30.23 1024 10 16.0934 0 0
2:56 pm 14:56 Mostly Cloudy 68 20 62 16.7 81 81 SSE 9 15 30.21 1023 10 16.0934 0 0
3:17 pm 15:17 Cloudy with Light Rain 64 18 59 15 83 83 NNW 3 6 30.21 1023 10 16.0934 0 0
3:56 pm 15:56 Cloudy 65 18.3 61 16.1 87 87 Calm 30.22 1024 10 16.0934 0 0
4:35 pm 16:35 Cloudy 66 19 59 15 78 78 ENE 10 17 30.2 1023 10 16.0934 0 0
4:56 pm 16:56 Cloudy 66 18.9 58 14.4 75 75 NE 10 17 30.22 1023 10 16.0934 0 0
5:17 pm 17:17 Cloudy 68 20 57 14 69 69 NE 7 11 30.19 1022 10 16.0934 0 0
5:24 pm 17:24 Mostly Cloudy 66 19 57 14 73 73 NNE 9 15 30.2 1023 10 16.0934 0 0
5:56 pm 17:56 Mostly Cloudy 67 19.4 58 14.4 73 73 NE 13 20 30.21 1023 10 16.0934 0 0
6:56 pm 18:56 Mostly Cloudy 67 19.4 57 13.9 71 71 NE 14 22 30.21 1023 10 16.0934 0 0
7:56 pm 19:56 Partly Cloudy 65 18.3 55 12.8 70 70 NE 10 17 30.22 1023 10 16.0934 0 0
8:56 pm 20:56 Partly Cloudy 61 16.1 54 12.2 78 78 NE 9 15 30.22 1023 10 16.0934 0 0
9:56 pm 21:56 Mostly Clear 59 15 49 9.4 69 69 NE 14 22 30.23 1024 10 16.0934 0 0
10:56 pm 22:56 Clear 56 13.3 46 7.8 70 70 NE 10 17 30.25 1024 10 16.0934 0 0
11:56 pm 23:56 Mostly Cloudy 55 12.8 43 6.1 64 64 NE 14 22 30.25 1024 10 16.0934 0 0

Powered by AerisWeather